Location: Chabe?ice
(49.7484°N, 15.0672°E)
Time: 11:49:30
(UTC+00:00)

Daily predictions for brighter satellites

Satellite Brightness Start Highest point End
(mag) Time Altitude Azimuth Time Altitude Azimuth Time Altitude Azimuth
ATLAS CENTAUR R/B 3.6 18:28:40 10° N 18:30:27 13° NNE 18:32:16 10° NE
CSL-04 Debris 4.2 18:26:10 10° SSE 18:31:34 70° ENE 18:37:02 10° N
Cosmos 1346 Rocket 3.5 18:28:34 10° SSW 18:32:19 58° WNW 18:36:06 10° N
ATLAS 3B R/B 3.0 18:29:37 10° SSW 18:36:23 51° ESE 18:43:38 10° NE
Cosmos 371 Rocket 3.8 18:32:55 10° NNW 18:37:32 44° ENE 18:42:05 10° SE
COSMOS 2455 3.9 18:33:31 10° NNW 18:39:00 34° NE 18:44:29 10° ESE
SL-4 R/B 2.0 18:35:19 10° W 18:39:01 63° N 18:42:28 10° E
CSL-04 Rocket 3.7 18:34:33 10° SSE 18:40:03 75° ENE 18:45:30 10° NNW
SJ-6B 4.0 18:37:08 10° S 18:40:56 46° W 18:44:49 10° NNW
Cosmos 304 Rocket 4.4 18:37:01 10° NNW 18:41:31 39° ENE 18:45:59 10° SE
In-Cosmos 22 Rocket 4.3 18:38:20 10° NNW 18:43:46 79° W 18:49:19 10° S
Cosmos 2181 Rocket 4.2 18:40:28 10° SSW 18:46:40 80° W 18:53:01 10° N
Okean 2 Rocket 3.9 18:43:24 10° SSE 18:47:23 32° E 18:51:22 10° NNE
MOS 1-B 4.5 18:43:14 10° SSE 18:49:02 83° WSW 18:54:54 10° NNW
Cosmos 1992 Rocket 4.0 18:44:15 10° SSW 18:49:28 89° WNW 18:54:44 10° NNE
CZ-4C R/B 3.7 18:43:30 10° NW 18:49:40 40° NNE 18:57:10 10° E
SPOT 5 3.8 18:47:07 10° SE 18:51:55 36° ENE 18:56:39 10° N
Cosmos 2297 Rocket 2.9 18:48:36 10° NNW 18:53:56 41° NE 18:58:46 12° ESE
Cosmos 1503 Rocket 4.1 18:52:32 10° NNW 18:57:55 70° ENE 19:03:16 10° SSE
Cosmos 2369 Rocket 3.9 18:53:00 10° WSW 18:58:17 39° NW 19:03:33 10° NNE
Cosmos 1354 Rocket 4.2 18:55:32 10° NNW 19:00:48 58° ENE 19:05:35 12° SE
Cosmos 1656 4.4 18:56:30 10° SSE 19:01:18 31° ESE 19:06:04 10° NE
BlueWalker 3 2.7 18:58:38 10° SSW 19:01:58 30° SE 19:05:21 10° E
Terra 3.1 19:01:25 13° ESE 19:04:37 25° ENE 19:08:27 10° N
ATLAS 5 CENTAUR R/B 1.3 19:02:54 10° SW 19:06:16 71° NW 19:10:04 10° NE
PSLV R/B 4.3 19:04:17 10° S 19:07:56 57° W 19:11:41 10° NNW
Cosmos 2098 Rocket 3.5 19:03:52 10° SSW 19:08:32 63° W 19:12:20 10° N
CARTOSAT-1 3.8 19:04:23 10° S 19:08:38 69° WSW 19:12:55 10° NNW
Iridium 4 Rocket 4.3 19:04:30 10° SSE 19:09:38 40° E 19:15:00 10° NNE
Sich 1 Rocket 3.7 19:06:33 10° S 19:10:51 53° E 19:15:13 10° NNE
Okean 1 Rocket 3.8 19:06:57 10° SSE 19:10:53 34° E 19:14:56 10° NNE
Okean-O 2.6 19:11:13 10° SSE 19:15:37 81° ENE 19:20:03 10° NNW
CZ-4B R/B 4.4 19:12:33 10° S 19:17:54 43° W 19:23:12 10° NNW
Ariane Rocket 3.9 19:16:23 17° ESE 19:19:34 33° ENE 19:24:02 10° N
Cosmos 2263 Rocket 4.0 19:16:11 10° N 19:20:15 20° NE 19:24:16 10° E
CZ-4C R/B 2.9 19:17:39 10° NNE 19:21:02 59° ESE 19:24:22 10° S
Nadezhda 3 Rocket 4.0 19:16:40 10° S 19:22:49 89° W 19:29:04 10° N
Cosmos 1437 Rocket 4.1 19:20:49 10° NNE 19:24:02 24° ENE 19:25:29 19° E
USA 186 4.2 19:22:13 10° SW 19:24:32 20° W 19:26:51 10° NW
Genesis I 3.0 19:21:06 10° NW 19:24:44 79° SW 19:26:55 23° SSE
USA 267 3.5 19:18:56 10° ENE 19:25:29 74° NNW 19:32:00 10° WSW
Cosmos 44 4.1 19:20:59 10° S 19:25:49 34° ESE 19:30:36 10° NE
BREEZE-M R/B 1.8 19:24:22 10° W 19:26:52 58° SSW 19:27:40 35° SE
Cosmos 1605 Rocket 4.3 19:23:41 10° N 19:29:57 53° ENE 19:34:28 19° SE
Okean O Rocket 2.9 19:26:29 10° SSW 19:30:33 39° W 19:34:42 10° NNW
Aureole 1 Rocket 3.8 19:31:28 10° N 19:33:51 21° ENE 19:34:29 19° ENE
CZ-4 R/B 4.2 19:33:48 10° SW 19:35:58 14° W 19:38:07 10° NW
Cosmos 1536 Rocket 4.0 19:37:23 10° NNW 19:41:46 62° W 19:45:49 12° S
Resurs 01 Rocket 3.5 19:41:38 10° SSW 19:45:27 28° W 19:49:19 10° NW
IRS-1C Rocket 4.1 19:42:38 17° SSE 19:46:44 86° WSW 19:52:04 10° NNW
MOS 1 Rocket 4.2 19:46:11 24° E 19:47:34 29° ENE 19:51:21 10° N
Cosmos 2058 4.0 19:46:21 10° NNE 19:49:48 26° ENE 19:50:33 25° E
CENTAUR R/B 3.7 19:43:21 10° NW 19:50:58 51° NE 19:57:39 18° ESE
NOSS 3-1 (A) 3.4 19:47:50 10° SW 19:52:53 72° NW 19:59:05 10° NE
ERS-1 Rocket 2.9 19:51:26 26° SSE 19:54:19 75° ENE 19:59:21 10° NNW
SPOT 3 Rocket 3.7 19:55:09 29° SE 19:57:43 59° ENE 20:02:49 10° N
Cosmos 1934 Rocket 4.4 19:54:31 10° NNW 20:00:36 63° W 20:06:25 12° S
USA 229 DEB 3.5 19:55:41 10° SSW 20:01:42 60° SE 20:08:21 10° NE
USA 229 3.5 19:55:47 10° SSW 20:01:48 60° SE 20:08:27 10° NE
USA 234 4.4 19:58:35 15° S 20:03:09 32° SW 20:08:54 10° WNW
USA 281 4.1 19:59:02 11° S 20:04:59 45° WSW 20:11:16 10° NW
Landsat 5 4.2 20:03:10 10° NNE 20:06:58 33° E 20:06:58 33° E
Cosmos 1727 Rocket 4.4 20:04:27 29° SE 20:07:05 44° E 20:12:57 10° NNE
ATLAS CENTAUR R/B 1.7 20:05:26 10° NNW 20:09:04 46° NE 20:09:58 38° E
Cosmos 2227 Rocket 2.2 20:04:08 10° NNW 20:09:51 74° ENE 20:12:21 35° SE
Cosmos 1980 Rocket 3.4 20:13:33 23° E 20:13:33 23° E 20:17:10 10° NE
Cosmos 1892 Rocket 3.4 20:12:26 10° N 20:16:48 90° SW 20:18:10 43° S
Cosmos 292 Rocket 4.3 20:12:39 10° NNW 20:17:14 45° ENE 20:18:28 37° E
SL-4 R/B 1.4 20:14:19 10° WNW 20:17:53 72° SSW 20:17:57 71° S
Cosmos 1697 Rocket 2.8 20:18:57 32° S 20:21:18 52° ESE 20:26:48 10° NE
Cosmos 1937 Rocket 4.1 20:16:55 10° NNW 20:22:01 44° ENE 20:23:39 34° ESE
Cosmos 2360 4.1 20:17:18 13° SSW 20:22:28 70° ESE 20:28:08 10° NNE
COSMOS 2455 3.0 20:19:22 10° NW 20:25:22 65° WSW 20:27:59 34° S
ATLAS 3B R/B 3.6 20:20:06 10° WSW 20:27:11 55° NW 20:34:45 10° NE
SPOT 5 4.2 20:26:04 16° SSW 20:29:51 40° W 20:34:48 10° NNW
MetOp-A 3.2 20:30:40 63° E 20:30:51 65° ENE 20:34:37 10° N
Cosmos 405 Rocket 2.7 20:33:26 58° SW 20:34:03 75° WNW 20:37:47 10° N
Cosmos 1898 Rocket 3.5 20:29:28 10° NNW 20:34:44 71° ENE 20:36:04 49° SE
Cosmos 1758 Rocket 4.4 20:30:44 10° N 20:34:51 35° ENE 20:35:01 35° ENE
Cosmos 2228 4.3 20:38:16 26° ENE 20:38:16 26° ENE 20:40:57 10° NNE
Cosmos 2297 Rocket 3.1 20:32:44 10° NW 20:38:01 41° WSW 20:40:36 26° SSW
Spot 2 Rocket 3.8 20:36:25 34° SSW 20:38:27 60° WSW 20:43:29 10° NNW
CZ-4C R/B 3.0 20:31:45 10° NW 20:38:48 81° SW 20:42:37 36° SSE
BlueWalker 3 2.0 20:36:10 10° WSW 20:39:59 76° NNW 20:40:37 59° NE
ARIANE 5 R/B 3.7 20:39:49 30° ENE 20:40:10 30° ENE 20:44:06 10° N
USA 81 3.9 20:38:46 48° SSE 20:40:15 75° E 20:45:31 10° N
Terra 2.5 20:40:08 32° SSW 20:41:57 49° W 20:46:34 10° NNW
Cosmos 1656 4.5 20:39:18 10° SW 20:44:42 51° NW 20:50:05 10° NNE
Meteor 2-13 Rocket 4.5 20:43:00 44° SSE 20:44:50 62° E 20:50:55 10° NNE
Meteor 2-1 Rocket 4.2 20:45:49 51° SE 20:46:49 60° E 20:52:15 10° NNE
Spot 1 4.1 20:43:16 10° NNE 20:47:58 83° WNW 20:49:02 52° SSW
Cosmos 1455 Rocket 3.4 20:46:45 38° SW 20:48:14 62° WNW 20:52:36 10° N
Cosmos 1725 Rocket 4.4 20:43:05 10° N 20:49:02 47° ENE 20:50:29 40° ESE
Cosmos 1459 Rocket 3.9 20:44:21 10° N 20:50:25 70° ENE 20:52:04 49° SE
ATLAS 5 CENTAUR R/B 4.1 20:48:23 10° WNW 20:50:57 18° NNW 20:53:47 10° NNE
Cosmos 2219 3.1 20:47:33 10° NNW 20:53:15 89° ENE 20:54:33 56° SSE
Ariane Rocket 3.9 20:56:30 29° SW 20:58:24 40° W 21:03:11 10° NNW
Cosmos 1437 Rocket 4.0 20:56:16 10° NNW 20:59:49 33° W 21:00:22 32° WSW
Cosmos 1763 Rocket 4.0 20:57:45 18° SW 21:01:27 57° WNW 21:06:33 10° NNE
Cosmos 858 Rocket 4.4 20:56:51 10° NNW 21:02:09 71° ENE 21:02:52 62° ESE
Cosmos 2263 Rocket 2.1 20:59:29 10° NNW 21:05:08 76° ENE 21:06:06 61° SE
Cosmos 44 4.2 21:01:35 10° WSW 21:06:53 53° NW 21:12:04 10° NE
USA 267 4.1 21:01:51 10° ENE 21:08:05 49° N 21:14:20 10° WNW
Cosmos 2082 3.5 21:05:55 10° NNW 21:11:37 83° ENE 21:12:29 65° SE
Cosmos 2173 Rocket 4.0 21:08:50 10° NNW 21:15:14 77° W 21:17:01 50° S
NOSS 3-2 (A) 4.0 21:09:37 10° NW 21:16:53 81° NE 21:19:58 43° SE
Meteor 2-3 Rocket 3.6 21:13:05 10° NNW 21:18:49 88° WSW 21:19:41 66° S
Cosmos 2322 Rocket 4.4 21:22:13 11° ENE 21:22:13 11° ENE 21:22:31 10° ENE
Cosmos 540 Rocket 4.1 21:18:45 28° SW 21:21:12 53° WNW 21:26:14 10° NNE
Cosmos 1606 3.9 21:23:39 37° N 21:23:39 37° N 21:25:57 10° N
MOS 1 Rocket 4.2 21:25:22 33° WSW 21:25:39 33° W 21:29:39 10° NNW
Cosmos 2058 4.3 21:22:51 10° NNW 21:26:24 30° W 21:26:27 30° W
Meteor 2-15 4.4 21:22:38 10° NNW 21:28:47 75° W 21:29:59 58° SSW
Cosmos 1626 Rocket 4.2 21:24:54 10° NNW 21:29:05 49° W 21:29:05 49° W
Spot 4 4.5 21:30:18 44° ENE 21:30:18 44° ENE 21:34:44 10° N
Cosmos 372 Rocket 4.4 21:26:44 10° NNW 21:31:48 51° WSW 21:32:09 50° WSW
Meteor 2-15 Rocket 4.3 21:25:55 10° N 21:32:07 89° ENE 21:33:02 67° SSE
Cosmos 1864 Rocket 4.4 21:28:29 10° N 21:34:41 81° W 21:35:41 64° S
Cosmos 1802 Rocket 4.1 21:31:28 10° NNW 21:37:43 71° W 21:38:59 56° SSW
SL-16 R/B 3.7 21:41:08 24° ENE 21:41:08 24° ENE 21:44:14 10° NE
CENTAUR R/B 3.3 21:34:02 10° NW 21:42:13 67° SW 21:44:48 49° S
Cosmos 1869 4.5 21:43:57 39° NW 21:43:57 39° NW 21:46:51 10° N
Cosmos 841 Rocket 3.5 21:43:35 70° W 21:43:55 72° WNW 21:49:04 10° NNE
Cosmos 2016 Rocket 3.9 21:38:54 10° NNW 21:45:01 74° W 21:45:55 63° SSW
ATLAS CENTAUR R/B 3.5 21:43:35 10° WNW 21:45:04 18° W 21:45:04 18° W
Cosmos 1844 Rocket 3.4 21:44:16 10° NNW 21:49:37 42° NE 21:50:30 39° ENE
Cosmos 1125 Rocket 4.4 21:46:18 10° NNW 21:51:12 39° ENE 21:51:35 38° ENE
H-2A R/B 3.6 21:54:16 37° NNW 21:54:16 37° NNW 21:56:42 10° NNW
Cosmos 2227 Rocket 3.9 21:49:10 10° NW 21:53:17 21° W 21:54:10 20° WSW
Cosmos 1980 Rocket 2.4 21:55:14 54° WSW 21:56:19 67° WNW 22:01:58 10° NNE
Cosmos 967 Rocket 4.4 21:53:55 10° NW 22:00:21 68° WSW 22:00:44 66° SW
Cosmos 2278 4.2 22:02:49 46° ENE 22:02:49 46° ENE 22:07:17 10° NE
Cosmos 1697 Rocket 4.2 22:00:33 11° WSW 22:05:31 34° NW 22:10:40 10° NNE
Cosmos 2123 Rocket 4.4 22:05:45 46° WSW 22:07:15 58° WNW 22:13:31 10° N
Cosmos 2151 4.0 22:03:38 10° N 22:06:35 42° NNE 22:06:35 42° NNE
CZ-2C R/B 4.4 22:06:14 10° N 22:10:47 52° WNW 22:10:47 52° WNW
Meteor 1-27 4.2 22:10:41 72° W 22:10:52 73° WNW 22:16:27 10° N
ARIANE 5 R/B 4.0 22:17:17 33° WNW 22:17:17 33° WNW 22:20:39 10° NNW
CZ-4C R/B 4.3 22:21:02 10° WNW 22:26:49 24° WSW 22:27:43 24° WSW
Cosmos 2227 4.3 22:22:28 10° NNW 22:27:45 66° W 22:27:45 66° W
Cosmos 2237 4.5 22:29:24 59° ENE 22:29:24 59° ENE 22:34:17 10° NNE
Cosmos 2369 4.3 22:27:50 43° W 22:29:03 50° NW 22:34:35 10° NNE
Lacrosse 4 Rocket 3.1 22:33:41 29° NNE 22:33:41 29° NNE 22:35:47 10° NNE
H-2A R/B 3.6 22:28:28 10° NNE 22:30:48 29° NE 22:30:48 29° NE
NOSS 3-2 (C) 3.9 22:25:40 10° NW 22:33:01 78° SW 22:34:32 62° SSE
ALOS 2 3.6 22:35:59 44° NW 22:35:59 44° NW 22:39:06 10° NNW
Cosmos 2233 Rocket 4.4 22:28:58 10° NNW 22:34:51 48° W 22:35:19 47° WSW
Cosmos 1447 Rocket 4.4 22:42:34 68° WSW 22:42:58 71° WNW 22:49:08 10° N
Cosmos 1464 Rocket 4.0 22:38:11 10° N 22:44:35 74° E 22:44:59 71° ESE
Cosmos 1814 Rocket 4.3 22:45:04 60° NW 22:45:04 60° NW 22:49:55 10° NNE
Cosmos 2058 Rocket 4.1 22:47:28 43° N 22:47:28 43° N 22:50:26 10° N
Cosmos 2263 Rocket 4.0 22:44:29 10° NW 22:47:47 19° W 22:47:47 19° W
Cosmos 2360 Rocket 2.9 22:51:06 41° E 22:51:06 41° E 22:55:26 10° NE
USA 267 3.9 22:44:10 10° E 22:50:31 55° NNE 22:56:53 10° WNW
Meteor 2-21 4.4 22:58:06 76° ESE 22:58:11 76° E 23:04:24 10° NNE
Cosmos 1891 Rocket 4.5 22:53:02 10° NNW 22:59:10 67° W 22:59:18 67° WSW
Meteor 1-20 Rocket 4.2 22:53:44 10° NNW 22:59:08 82° N 22:59:08 82° N
Cosmos 1513 Rocket 4.4 22:53:31 10° NNW 22:59:36 72° W 22:59:38 72° W
Cosmos 1570 Rocket 4.2 23:02:43 66° NNE 23:02:43 66° NNE 23:07:11 10° NNE
Cosmos 2333 Rocket 2.8 23:03:47 45° E 23:03:47 45° E 23:08:19 10° NE
Cosmos 2322 Rocket 2.3 23:03:59 65° ENE 23:03:59 65° ENE 23:08:56 10° NNE
Cosmos 2278 Rocket 4.3 22:59:22 10° N 23:03:46 22° NE 23:08:09 10° E
Lacrosse 5 3.1 23:05:57 33° ENE 23:05:57 33° ENE 23:08:51 10° ENE
Cosmos 2219 Rocket 3.4 23:05:42 30° E 23:05:42 30° E 23:09:38 10° NE
Cosmos 2034 Rocket 3.9 23:00:31 10° N 23:06:43 74° ENE 23:07:00 72° ESE
Meteor 1-25 Rocket 4.2 23:05:45 10° NNW 23:11:03 79° N 23:11:03 79° N
Geosat 4.2 23:20:32 67° NNE 23:20:32 67° NNE 23:25:15 10° NNW
SL-16 R/B 2.5 23:22:57 57° WNW 23:23:15 58° WNW 23:28:53 10° NNE
Cosmos 1844 4.3 23:18:51 10° NW 23:23:28 47° WNW 23:23:28 47° WNW
Cosmos 1634 Rocket 4.3 23:21:22 10° N 23:27:38 58° ENE 23:28:37 52° ESE
USA 238 DEB 3.9 23:25:29 10° NW 23:32:41 60° SW 23:32:58 60° SW
USA 238 3.9 23:25:35 10° NW 23:32:47 61° SW 23:33:05 60° SW
Cosmos 1844 Rocket 3.7 23:28:19 10° NW 23:32:08 34° WNW 23:32:08 34° WNW
IDEFIX/ARIANE 42P 4.4 23:35:31 10° NE 23:39:08 19° E 23:39:49 18° E
Resurs 1-4 Rocket 4.2 23:36:14 10° NE 23:39:26 16° E 23:40:30 15° ESE
Cosmos 158 Rocket 4.2 23:41:25 64° NNW 23:41:25 64° NNW 23:45:48 10° NNE
Cosmos 1943 Rocket 4.3 23:36:46 10° NNW 23:41:20 24° NE 23:45:53 10° E
Timation 2 Rocket 4.5 23:42:37 10° NW 23:48:19 47° W 23:48:19 47° W
Meteor 2-2 Rocket 4.2 23:48:58 77° W 23:49:07 78° WNW 23:55:07 10° N
Cosmos 1766 Rocket 4.4 23:47:52 10° N 23:51:19 48° NNE 23:51:19 48° NNE
Cosmos 1743 4.4 23:51:13 10° N 23:53:28 30° NNE 23:53:28 30° NNE
